Location: Austin
(30.3000°N, 97.7500°W)
Time: 00:36:34
(UTC-06:00)

USA 281 - Pass Details

Date: 04 November 2025
Orbit: 1076 x 1082 km, 106.0° (Epoch: 13 November)

Event Time Altitude Azimuth Distance (km) Brightness Sun altitude
Exits shadow 18:36:40 16° 77° (ENE) 2,493 4.5 -12.5°
Maximum altitude 18:38:37 18° 56° (NE) 2,363 4.5 -12.9°
Drops below altitude 10° 18:42:48 10° 15° (NNE) 2,925 5.2 -13.8°
Sets 18:46:10 0° 358° (N) 3,884 6.1 -14.5°
